• Em Portugal
  • Lista de países
  • Para 7 dias
  • Temperatura da água
  • Mapas de satélite
  • Mapa do tempo
  • Widgets de tempo
  • user-avatar
    Iniciar Sessão

    Previsão horária em Niewodna

    Hoje, 24 Setembro, Segunda-feira

    Tempo Temperatura Precipitação Vento Pressão Humidade
    00:00 +13°C° 0.2 mm 10 m/s 722 mmHg 66%
    01:00 +14°C° 0 mm 5 m/s 721 mmHg 75%
    02:00 +13°C° 0.9 mm 6 m/s 722 mmHg 79%
    03:00 +11°C° 0.9 mm 8 m/s 723 mmHg 82%
    04:00 +10°C° 0.9 mm 9 m/s 724 mmHg 85%
    05:00 +8°C° 0.3 mm 9 m/s 725 mmHg 85%
    06:00 +7°C° 0.3 mm 8 m/s 727 mmHg 84%
    07:00 +6°C° 0.3 mm 8 m/s 728 mmHg 84%
    08:00 +6°C° 0.3 mm 8 m/s 729 mmHg 82%
    09:00 +7°C° 0.3 mm 8 m/s 730 mmHg 81%
    10:00 +7°C° 0.3 mm 8 m/s 731 mmHg 79%
    11:00 +7°C° 0.1 mm 8 m/s 732 mmHg 73%
    12:00 +8°C° 0.1 mm 9 m/s 732 mmHg 68%
    13:00 +8°C° 0.1 mm 9 m/s 733 mmHg 63%
    14:00 +8°C° 0.1 mm 9 m/s 733 mmHg 61%
    15:00 +9°C° 0.1 mm 8 m/s 733 mmHg 60%
    16:00 +9°C° 0.1 mm 8 m/s 733 mmHg 58%
    17:00 +8°C° 0 mm 7 m/s 734 mmHg 62%
    18:00 +7°C° 0 mm 6 m/s 734 mmHg 65%
    19:00 +6°C° 0 mm 5 m/s 735 mmHg 69%
    20:00 +6°C° 0.1 mm 5 m/s 735 mmHg 71%
    21:00 +5°C° 0.1 mm 6 m/s 735 mmHg 72%
    22:00 +5°C° 0.1 mm 6 m/s 736 mmHg 74%
    23:00 +4°C° 0.2 mm 6 m/s 736 mmHg 76%

    Amanhã, 25 Setembro, Terça-feira

    Tempo Temperatura Precipitação Vento Pressão Humidade
    00:00 +4°C° 0.2 mm 6 m/s 737 mmHg 79%
    01:00 +5°C° 0.2 mm 5 m/s 737 mmHg 81%
    02:00 +3°C° 0 mm 5 m/s 737 mmHg 82%
    03:00 +3°C° 0 mm 5 m/s 738 mmHg 83%
    04:00 +3°C° 0 mm 5 m/s 738 mmHg 84%
    05:00 +3°C° 0 mm 5 m/s 739 mmHg 83%
    06:00 +3°C° 0 mm 6 m/s 740 mmHg 82%
    07:00 +3°C° 0 mm 6 m/s 740 mmHg 81%
    08:00 +5°C° 0 mm 6 m/s 741 mmHg 73%
    09:00 +7°C° 0 mm 6 m/s 741 mmHg 66%
    10:00 +9°C° 0 mm 7 m/s 742 mmHg 59%
    11:00 +9°C° 0.1 mm 7 m/s 742 mmHg 55%
    12:00 +10°C° 0.1 mm 7 m/s 742 mmHg 51%
    13:00 +10°C° 0.1 mm 7 m/s 742 mmHg 47%
    14:00 +10°C° 0.1 mm 6 m/s 742 mmHg 49%
    15:00 +9°C° 0.1 mm 6 m/s 743 mmHg 52%
    16:00 +9°C° 0.1 mm 5 m/s 743 mmHg 54%
    17:00 +8°C° 0 mm 4 m/s 743 mmHg 57%
    18:00 +7°C° 0 mm 3 m/s 744 mmHg 60%
    19:00 +5°C° 0 mm 3 m/s 744 mmHg 64%
    20:00 +5°C° 0 mm 2 m/s 745 mmHg 66%
    21:00 +5°C° 0 mm 2 m/s 745 mmHg 69%
    22:00 +4°C° 0 mm 2 m/s 746 mmHg 71%
    23:00 +4°C° 0 mm 2 m/s 746 mmHg 74%

    Depois de amanhã, 26 Setembro, Quarta-feira

    Tempo Temperatura Precipitação Vento Pressão Humidade
    00:00 +3°C° 0 mm 2 m/s 746 mmHg 77%
    01:00 +3°C° 0 mm 2 m/s 746 mmHg 79%
    02:00 +3°C° 0 mm 1 m/s 746 mmHg 80%
    03:00 +3°C° 0 mm 1 m/s 747 mmHg 82%
    04:00 +3°C° 0 mm 1 m/s 747 mmHg 83%
    05:00 +4°C° 0 mm 1 m/s 747 mmHg 80%
    06:00 +4°C° 0 mm 1 m/s 747 mmHg 77%
    07:00 +5°C° 0 mm 1 m/s 747 mmHg 74%
    08:00 +6°C° 0 mm 2 m/s 747 mmHg 65%
    09:00 +8°C° 0 mm 2 m/s 747 mmHg 57%
    10:00 +10°C° 0 mm 2 m/s 747 mmHg 48%
    11:00 +12°C° 0 mm 2 m/s 746 mmHg 45%
    12:00 +13°C° 0 mm 2 m/s 746 mmHg 42%
    13:00 +14°C° 0 mm 2 m/s 746 mmHg 39%
    14:00 +14°C° 0 mm 2 m/s 745 mmHg 43%
    15:00 +14°C° 0 mm 2 m/s 744 mmHg 46%
    16:00 +14°C° 0 mm 2 m/s 744 mmHg 49%
    17:00 +12°C° 0 mm 2 m/s 744 mmHg 50%
    18:00 +10°C° 0 mm 2 m/s 743 mmHg 52%
    19:00 +8°C° 0 mm 2 m/s 743 mmHg 54%
    20:00 +8°C° 0 mm 2 m/s 743 mmHg 54%
    21:00 +9°C° 0 mm 3 m/s 743 mmHg 55%
    22:00 +9°C° 0 mm 3 m/s 743 mmHg 55%
    23:00 +9°C° 0 mm 3 m/s 743 mmHg 55%

    27 Setembro, Quinta-feira

    Tempo Temperatura Precipitação Vento Pressão Humidade
    00:00 +9°C° 0 mm 3 m/s 743 mmHg 54%
    01:00 +8°C° 0 mm 4 m/s 742 mmHg 54%
    02:00 +7°C° 0 mm 4 m/s 742 mmHg 55%
    03:00 +7°C° 0 mm 4 m/s 742 mmHg 55%
    04:00 +6°C° 0 mm 4 m/s 741 mmHg 55%
    05:00 +7°C° 0 mm 4 m/s 741 mmHg 54%
    06:00 +7°C° 0 mm 4 m/s 741 mmHg 53%
    07:00 +8°C° 0 mm 4 m/s 741 mmHg 53%
    08:00 +10°C° 0 mm 5 m/s 741 mmHg 50%
    09:00 +12°C° 0 mm 5 m/s 741 mmHg 48%
    10:00 +14°C° 0 mm 5 m/s 741 mmHg 46%
    11:00 +15°C° 0 mm 5 m/s 741 mmHg 47%
    12:00 +17°C° 0 mm 5 m/s 740 mmHg 48%
    13:00 +19°C° 0 mm 6 m/s 740 mmHg 49%
    14:00 +19°C° 0 mm 5 m/s 740 mmHg 53%
    15:00 +19°C° 0 mm 4 m/s 740 mmHg 56%
    16:00 +18°C° 0 mm 4 m/s 740 mmHg 60%
    17:00 +17°C° 0 mm 3 m/s 740 mmHg 64%
    18:00 +14°C° 0 mm 3 m/s 740 mmHg 68%
    19:00 +12°C° 0 mm 3 m/s 740 mmHg 71%
    20:00 +12°C° 0 mm 3 m/s 739 mmHg 71%
    21:00 +12°C° 0 mm 3 m/s 739 mmHg 71%
    22:00 +13°C° 0 mm 2 m/s 739 mmHg 71%
    23:00 +13°C° 0 mm 2 m/s 739 mmHg 72%

    28 Setembro, Sexta-feira

    Tempo Temperatura Precipitação Vento Pressão Humidade
    00:00 +13°C° 0 mm 2 m/s 739 mmHg 73%
    01:00 +12°C° 0 mm 2 m/s 738 mmHg 74%
    02:00 +12°C° 0 mm 2 m/s 738 mmHg 75%
    03:00 +10°C° 0 mm 2 m/s 737 mmHg 76%
    04:00 +10°C° 0 mm 2 m/s 737 mmHg 77%
    05:00 +10°C° 0 mm 3 m/s 737 mmHg 75%
    06:00 +11°C° 0 mm 3 m/s 736 mmHg 72%
    07:00 +11°C° 0 mm 3 m/s 736 mmHg 70%
    08:00 +13°C° 0 mm 3 m/s 736 mmHg 64%
    09:00 +15°C° 0 mm 4 m/s 736 mmHg 59%
    10:00 +19°C° 0 mm 4 m/s 735 mmHg 53%
    11:00 +20°C° 0 mm 5 m/s 735 mmHg 51%
    12:00 +21°C° 0 mm 5 m/s 734 mmHg 49%
    13:00 +22°C° 0 mm 5 m/s 734 mmHg 47%
    14:00 +21°C° 0 mm 4 m/s 733 mmHg 49%
    15:00 +20°C° 0 mm 4 m/s 733 mmHg 51%
    16:00 +20°C° 0 mm 4 m/s 732 mmHg 53%
    17:00 +19°C° 0 mm 3 m/s 732 mmHg 54%
    18:00 +18°C° 0 mm 3 m/s 732 mmHg 54%
    19:00 +16°C° 0 mm 3 m/s 732 mmHg 55%
    20:00 +16°C° 0 mm 3 m/s 732 mmHg 59%
    21:00 +14°C° 0 mm 3 m/s 732 mmHg 63%
    22:00 +14°C° 0 mm 2 m/s 732 mmHg 67%
    23:00 +13°C° 0 mm 2 m/s 732 mmHg 73%

    29 Setembro, Sábado

    Tempo Temperatura Precipitação Vento Pressão Humidade
    00:00 +12°C° 0 mm 2 m/s 732 mmHg 78%
    01:00 +10°C° 0 mm 2 m/s 732 mmHg 84%
    02:00 +10°C° 0.2 mm 2 m/s 732 mmHg 86%
    03:00 +10°C° 0.2 mm 2 m/s 732 mmHg 88%
    04:00 +10°C° 0.2 mm 3 m/s 733 mmHg 91%
    05:00 +10°C° 1 mm 3 m/s 733 mmHg 90%
    06:00 +8°C° 1 mm 4 m/s 733 mmHg 90%
    07:00 +8°C° 1 mm 4 m/s 734 mmHg 89%
    08:00 +9°C° 0.4 mm 5 m/s 734 mmHg 83%
    09:00 +10°C° 0.4 mm 5 m/s 735 mmHg 78%
    10:00 +10°C° 0.4 mm 5 m/s 736 mmHg 72%
    11:00 +11°C° 0.1 mm 6 m/s 736 mmHg 67%
    12:00 +11°C° 0.1 mm 6 m/s 736 mmHg 62%
    13:00 +13°C° 0.1 mm 6 m/s 737 mmHg 57%
    14:00 +11°C° 0 mm 6 m/s 737 mmHg 57%
    15:00 +12°C° 0 mm 5 m/s 737 mmHg 57%
    16:00 +10°C° 0 mm 5 m/s 738 mmHg 56%
    17:00 +9°C° 0 mm 5 m/s 738 mmHg 58%
    18:00 +8°C° 0 mm 4 m/s 739 mmHg 60%
    19:00 +7°C° 0 mm 3 m/s 739 mmHg 61%
    20:00 +7°C° 0 mm 3 m/s 740 mmHg 63%
    21:00 +5°C° 0 mm 3 m/s 740 mmHg 64%
    22:00 +4°C° 0 mm 3 m/s 740 mmHg 66%
    23:00 +4°C° 0 mm 3 m/s 740 mmHg 68%
    Mostrar mais